Tracking 29892 objects as of 21-Nov-2024
HD Live streaming from Space Station
objects crossing your sky now

CZ-6A DEB

Track CZ-6A DEB now!
10-day predictions


NORAD ID: 54968
Int'l Code: 2022-151TH
Perigee: 652.4 km
Apogee: 789.5 km
Inclination: 98.7 °
Period: 99.1 minutes
Semi major axis: 7091 km
RCS: Unknown
Launch date: November 11, 2022
Source: People's Republic of China (PRC)
Launch site: Taiyaun Space Center, China (TSC)

Note: This is SATELLITE DEBRIS
Your satellite tracking list
Your tracking list is empty




NASA's NSSDC Master Catalog

Two Line Element Set (TLE):
1 54968U 22151TH  24325.73062019  .00020839  00000-0  46822-2 0  9993
2 54968  98.6691 354.0309 0096654 257.8852 101.1501 14.53635359106408
Source of the keplerian elements: AFSPC